Regional Weather Roundup
Issued by NWS

Home | Current Version | Previous Version | Text Only | Print | Product List | Glossary Off
Versions: 1 2 3 4 5 6 7 8 9 10 11 12 13 14 15 16 17 18 19 20 21 22 23 24 25 26 27 28 29 30 31 32 33 34 35 36 37 38 39 40 41 42 43 44 45 46 47 48 49 50

000
ASUS43 KMKX 142300
RWRWI

WISCONSIN REGIONAL WEATHER ROUNDUP
NATIONAL WEATHER SERVICE MILWAUKEE/SULLIVAN WI
600 PM CDT SUN SEP 14 2014

NOTE: "FAIR" INDICATES FEW OR NO CLOUDS BELOW 12,000 FEET WITH NO
SIGNIFICANT WEATHER AND/OR OBSTRUCTIONS TO VISIBILITY.

WIZ001-002-006>008-014>016-023>028-150000-
NORTHWEST WISCONSIN

CITY           SKY/WX    TMP DP  RH WIND       PRES   REMARKS
SUPERIOR ARPT  PTSUNNY   60  43  54 W7        30.05S
ASHLAND        MOSUNNY   57  44  62 W6        30.06R
HAYWARD        MOSUNNY   58  41  53 VRB6      30.07S
SIREN          CLOUDY    58  44  57 W5        30.09R
RICE LAKE      PTSUNNY   61  38  42 SW8       30.10R
LADYSMITH      PTSUNNY   59  43  55 W7        30.09R
EAU CLAIRE     NOT AVBL
MENOMONIE      CLEAR     64  36  35 SW14      30.09R
NEW RICHMOND   MOSUNNY   60  37  42 W10       30.11R
OSCEOLA        MOSUNNY   62  41  45 W10       30.13R
$$

WIZ003>005-009-010-017-018-150000-
NORTH CENTRAL WISCONSIN

CITY           SKY/WX    TMP DP  RH WIND       PRES   REMARKS
WOODRUFF       PTSUNNY   59  41  50 W5        30.05R
RHINELANDER    PTSUNNY   58  41  53 W9        30.06S
EAGLE RIVER    CLOUDY    58  39  48 W9        30.04R
LAND O LAKES   PTSUNNY   58  39  49 W9        30.04S
PHILLIPS       CLOUDY    57  41  54 W5        30.06R
TOMAHAWK       MOSUNNY   59  40  50 W5        30.07R
MEDFORD        SUNNY     59  42  53 W10G16    30.07F
MERRILL        PTSUNNY   61  44  53 W8        30.07R
$$

WIZ029-030-035-036-043>047-150000-
CENTRAL WISCONSIN

CITY           SKY/WX    TMP DP  RH WIND       PRES   REMARKS
WAUSAU         SUNNY     62  44  51 W15       30.06S
MOSINEE        MOSUNNY   61  50  67 W9G17     30.08S
MARSHFIELD     SUNNY     63  46  54 NW9       30.08R
STEVENS POINT  PTSUNNY   62  46  55 SW9       30.08S
WAUPACA        PTSUNNY   67  48  51 SW14      30.08F
WAUTOMA        NOT AVBL
WISC RAPIDS    LGT RAIN  65  48  54 SW12G20   30.09S
CAMP DOUGLAS   MOSUNNY   65  50  58 SW8       30.09F
$$

WIZ011>013-019>022-031-037>040-048>050-150000-
NORTHEAST WISCONSIN

CITY           SKY/WX    TMP DP  RH WIND       PRES   REMARKS
ANTIGO         SUNNY     60  45  58 W15G23    30.07S
STURGEON BAY   MOSUNNY   61  45  55 S12       30.08S
GREEN BAY      SUNNY     63  47  55 SW13      30.08F
MANITOWOC      NOT AVBL
APPLETON       MOSUNNY   64  46  52 SW13G18   30.09F
CLINTONVILLE   CLOUDY    64  45  48 SW10      30.07S
OSHKOSH        MOSUNNY   63  47  55 SW10      30.10F
$$

WIZ032>034-041-042-053>061-150000-
SOUTHWEST WISCONSIN

CITY           SKY/WX    TMP DP  RH WIND       PRES   REMARKS
LA CROSSE      PTSUNNY   68  50  52 SW10      30.08S
SPARTA         PTSUNNY   65  47  52 SW6       30.09F
VIROQUA        FAIR      65  47  51 SW10G16   30.10F
BOSCOBEL       SUNNY     68  48  48 S7G17     30.11F
PRAIRIE DU CHI MOSUNNY   65  46  51 S5        30.12F
PLATTEVILLE    FAIR      63  48  57 CALM      30.16F
$$

WIZ056-057-062-063-064-067-068-150000-
SOUTH CENTRAL WISCONSIN

CITY           SKY/WX    TMP DP  RH WIND       PRES   REMARKS
BARABOO/DELLS  MOSUNNY   65  45  48 SW14      30.12S
LONE ROCK      NOT AVBL
WATERTOWN      SUNNY     64  46  53 SW10      30.14S
MADISON        MOSUNNY   65  46  50 SW7       30.14S
MIDDLETON      FAIR      66  45  46 W9G16     30.14S
MONROE         MOSUNNY   63  46  55 SW13      30.16R
JANESVILLE     MOSUNNY   66  43  42 SW14      30.15S
$$

WIZ051-052-058>065-066-070>072-150000-
SOUTHEAST WISCONSIN

CITY           SKY/WX    TMP DP  RH WIND       PRES   REMARKS
MILWAUKEE      MOSUNNY   63  43  48 SW13      30.16S
WAUKESHA       SUNNY     61  43  51 SW12      30.16
MILWAUKEE/TIMM SUNNY     64  43  45 SW12      30.15S
RACINE         SUNNY     63  44  50 SW7       30.17F
BURLINGTON     SUNNY     62  44  51 SW9       30.17R
KENOSHA        SUNNY     62  46  55 SW8       30.17S
FOND DU LAC    MOSUNNY   62  46  55 SW9       30.12S
SHEBOYGAN      PTSUNNY   61  45  55 SW9       30.13S
WEST BEND      SUNNY     63  41  45 SW12      30.14S
JUNEAU         SUNNY     62  45  54 SW13G18   30.15S
$$

LSZ147-162-150000-
LAKE SUPERIOR

STATION/POSITION TIME  TEMP    WIND        PRES    WAVE
                       AIR SEA DIR/SP/G            HT/PER
                 (UTC) (F)     (DEG/KT/KT) (MB)    (FT/S)
W MID LAKE BUOY  2150   51 47  240/ 16/ 17 1015.6R   4/ 6
DEVILS ISLAND    2200   54     240/ 11/ 13 1017.0R
PORT WING        2200   58     260/  7/ 11 1017.6S
SAXON HARBOR     2200   61     280/  9/ 15 1017.3
$$

LMZ867-665-643>646-150000-
LAKE MICHIGAN

STATION/POSITION TIME  TEMP    WIND        PRES    WAVE
                       AIR SEA DIR/SP/G            HT/PER
                 (UTC) (F)     (DEG/KT/KT) (MB)    (FT/S)
N MID LAKE BUOY  2150   57 58  210/ 27/ 31 1018.0F   6/ 6
NORTHPORT PIER   2200   58     160/  8/ 17 1017.9F
KEWAUNEE LAKESHO 2200   54     180/ 14/ 17 1018.5F
SHEBOYGAN LAKESH 2200   59 51  180/ 19/ 21 1020.5F
PORT WASHINGTON  2240   67     230/  6/ 16 1021.0F
MILWAUKEE LAKESH 2200   62     220/ 13/ 17   N/A
S MID LAKE BUOY  2150   59 65  190/ 12/ 14 1022.6F   2/ 4
KENOSHA   LAKESH 2200   64     220/ 10/ 15 1021.3F
$$

TC  - TEMPERATURE IN CELSIUS
VSB - VISIBILITY IN STATUTE MILES
WCI - WIND CHILL INDEX
HX  - HEAT INDEX



USA.gov is the U.S. government's official web portal to all federal, state and local government web resources and services.